This is the latest recevied weather packets stored in our database for station/object N9DMT-13. If no packets are shown the sender has not sent any weather packets the latest 10 day(s).
| Time | Temp. | Humidity | Pressure | Rain* | Wind** | Luminosity | Snow |
|---|---|---|---|---|---|---|---|
| 1777579784 | 12.22° C | 44% | 982.3 hPa | 0 mm | - | - | - |
| 1777579483 | 12.22° C | 46% | 982.3 hPa | 0 mm | - | - | - |
| 1777579182 | 11.67° C | 45% | 982.4 hPa | 0 mm | - | - | - |
| 1777578882 | 11.67° C | 46% | 982.3 hPa | 0 mm | - | - | - |
| 1777578581 | 11.67° C | 47% | 982.4 hPa | 0 mm | - | - | - |
| 1777578280 | 11.11° C | 48% | 982.3 hPa | 0 mm | - | - | - |
| 1777577980 | 11.11° C | 47% | 982.4 hPa | 0 mm | - | - | - |
| 1777577679 | 11.67° C | 47% | 982.7 hPa | 0 mm | - | - | - |
| 1777577378 | 11.67° C | 50% | 982.6 hPa | 0 mm | - | - | - |
| 1777577078 | 11.67° C | 50% | 982.4 hPa | 0 mm | - | - | - |
| 1777576777 | 11.67° C | 48% | 982.6 hPa | 0 mm | - | - | - |
| 1777576477 | 11.67° C | 50% | 982.5 hPa | 0 mm | - | - | - |
| 1777576176 | 11.67° C | 48% | 982.5 hPa | 0 mm | - | - | - |
| 1777575875 | 11.67° C | 50% | 982.7 hPa | 0 mm | - | - | - |
| 1777575575 | 11.67° C | 47% | 982.7 hPa | 0 mm | - | - | - |
| 1777575274 | 11.67° C | 48% | 982.6 hPa | 0 mm | - | - | - |
| 1777574973 | 11.67° C | 48% | 982.8 hPa | 0 mm | - | - | - |
| 1777574673 | 11.67° C | 47% | 982.7 hPa | 0 mm | - | - | - |
| 1777574372 | 11.67° C | 48% | 982.8 hPa | 0 mm | - | - | - |
| 1777574071 | 11.67° C | 47% | 982.8 hPa | 0 mm | - | - | - |
| 1777573771 | 12.22° C | 46% | 982.9 hPa | 0 mm | - | - | - |
| 1777573470 | 12.78° C | 46% | 983 hPa | 0 mm | - | - | - |
| 1777573169 | 12.78° C | 45% | 982.8 hPa | 0 mm | - | - | - |
| 1777572868 | 12.78° C | 43% | 982.7 hPa | 0 mm | - | - | - |
| 1777572568 | 12.22° C | 51% | 983 hPa | 0 mm | - | - | - |
* Rain latest hour (hover to see other rain measurements)
** Current wind speed in m/s (hover to see current wind gust speed)